sat.trackr.live / text

‹ back to catalog

STARLINK-30944

NORAD 58451 · 2023-183Q

PAYLOAD ACTIVE UNKNOWN

§ Identity

Operator
Country
US
Launch date
2023-11-28
Launch site
AFETR
Launch vehicle
Mass (kg)
RCS (m²)

Purposes: comms

External: N2YO · Heavens-Above · Gunter

§ Orbital elements

Epoch: 2026-09-20T09:29:49.658496Z

Period
94.27 min
Inclination
43.0037°
Eccentricity
0.0001926
Mean motion
15.27563417 rev/d
Perigee alt
481.8 km
Apogee alt
484.4 km
Semi-major
6,861.2 km
B*
-1.5337e-4
RAAN
21.8854°
Arg perigee
271.4607°
Mean anomaly
88.6024°
Rev number
15,648

§ Raw data

STARLINK-309441 58451U 23183Q   26263.39571364 -.00004478  00000+0 -15337-3 0  99932 58451  43.0037  21.8854 0001926 271.4607  88.6024 15.27563417156488

JSON: /api/v1/satellites/58451 · /tle

For live sub-satellite position, see the globe view (requires WebGL).

§ Visibility from observer

Set your observer location to see the next 7 days of passes ≥ 10°. The values pass through the URL so the page stays shareable.

No JS? Fill the form by hand. The geolocation button needs JavaScript.